Overview Statistics Trail Chart Weather Telemetry Raw packets
 

This is the latest recevied weather packets stored in our database for station/object WX5KDM. If no packets are shown the sender has not sent any weather packets the latest 10 day(s).

<< 61 62 63 64 65 66 67 >>
Time Temp. Humidity Pressure Rain* Wind** Luminosity Snow
1788196302 33.89° C 57% 1020.5 hPa 0 mm - - -
1788195998 33.33° C 58% 1020.6 hPa 0 mm - - -
1788195695 33.33° C 58% 1020.7 hPa 0 mm - - -
1788195390 32.78° C 60% 1020.5 hPa 0 mm - - -
1788195087 32.22° C 61% 1020.6 hPa 0 mm - - -
1788194783 32.78° C 59% 1020.7 hPa 0 mm - - -
1788194478 32.78° C 59% 1020.7 hPa 0 mm - - -
1788194173 32.22° C 62% 1020.9 hPa 0 mm - - -
1788193869 32.22° C 61% 1020.8 hPa 0 mm - - -
1788193568 32.78° C 60% 1020.9 hPa 0 mm - - -
1788193266 32.22° C 61% 1020.8 hPa 0 mm - - -
1788192962 32.78° C 60% 1020.9 hPa 0 mm - - -
1788192658 32.22° C 62% 1020.7 hPa 0 mm - - -
1788192357 32.78° C 61% 1020.9 hPa 0 mm - - -
1788192054 32.78° C 62% 1020.8 hPa 0 mm - - -
1788191747 32.78° C 61% 1020.8 hPa 0 mm - - -
1788191443 32.22° C 63% 1020.9 hPa 0 mm - - -
1788191139 31.67° C 64% 1020.9 hPa 0 mm - - -
1788190838 31.67° C 64% 1020.8 hPa 0 mm - - -
1788190538 32.22° C 66% 1021 hPa 0 mm - - -
1788190235 32.22° C 64% 1021 hPa 0 mm - - -
1788189930 32.22° C 65% 1021 hPa 0 mm - - -
1788189626 31.67° C 67% 1020.9 hPa 0 mm - - -
1788189320 32.22° C 68% 1020.8 hPa 0 mm - - -
1788189020 31.67° C 66% 1020.9 hPa 0 mm - - -

* Rain latest hour (hover to see other rain measurements)
** Current wind speed in m/s (hover to see current wind gust speed)